[[{"header":{"parameterUnit":"m.s-1","parameterCategory":1,"la1":30.2991,"la2":30.254,"lo1":-89.0895,"lo2":-89.0444,"dy":0.0017,"dx":0.0017,"nx":28,"ny":28,"refTime":"2025-04-29T21:00:00:Z","depth":0,"parameterNumber":2,"parameterNumberName":"U-component_of_WINDS"},"data":[0,0,0,0,0,0,0,0,0,0,0,0,0,0,0,0,0,0,0,0,0,0,0,0,0,0,0,0,0,0,0,0,0,0,0,0,0,0,0,0,0,0,0,0,0,0,0,0,0,0,0,0,0,0,0,0,0,0,-2.4299,-2.43,0,-2.4396,-2.4397,-2.4398,-2.4424,-2.4423,-2.4422,-2.4422,-2.4522,-2.4525,-2.4528,0,0,0,0,0,0,0,0,0,0,0,0,0,-2.4137,-2.4139,-2.4299,-2.43,-2.4301,-2.4396,-2.4397,-2.4399,-2.4424,-2.4423,-2.4422,-2.4422,-2.4521,-2.4524,-2.4528,0,0,0,0,0,0,0,0,0,0,0,0,0,-2.4218,-2.414,-2.4299,-2.4325,-2.4329,-2.4396,-2.4397,-2.4399,-2.4424,-2.4423,-2.4422,-2.4421,-2.4519,-2.4524,-2.4529,-2.4577,0,0,-2.4544,-2.4546,0,0,0,0,0,0,0,0,-2.4213,-2.4224,-2.432,-2.4324,-2.4328,-2.4397,-2.4377,-2.4459,-2.4424,-2.4388,-2.4422,-2.4421,-2.4481,-2.4489,-2.4509,-2.4581,-2.4585,-2.4544,-2.4547,-2.4549,-2.455,0,0,0,0,0,0,0,-2.4207,-2.422,-2.4337,-2.4322,-2.4326,-2.4333,-2.4343,-2.4392,-2.4438,-2.4391,-2.4393,-2.4404,-2.4483,-2.4504,-2.4512,-2.4587,-2.4544,-2.4548,-2.4551,-2.4553,-2.4703,-2.4704,0,0,0,0,0,0,-2.4197,-2.4215,-2.4334,-2.434,-2.4267,-2.4336,-2.4348,-2.4375,-2.4438,-2.4446,-2.4405,-2.4405,-2.4497,-2.4506,-2.4515,-2.4575,-2.4549,-2.4554,-2.4556,-2.4702,-2.4703,-2.4705,0,0,0,0,0,0,-2.4194,-2.4208,-2.433,-2.4278,-2.4294,-2.434,-2.4371,-2.4378,-2.4399,-2.4448,-2.4457,-2.4418,-2.4496,-2.4508,-2.4561,-2.4578,-2.4556,-2.456,-2.4701,-2.4702,-2.4704,-2.4694,0,0,0,0,0,0,-2.4189,-2.4206,-2.4224,-2.4278,-2.4297,-2.4374,-2.4372,-2.438,-2.4408,-2.4409,-2.4463,-2.4471,-2.4496,-2.4554,-2.4566,-2.4585,-2.4564,-2.4699,-2.4701,-2.4703,-2.4693,-2.4695,-2.4697,0,0,0,0,0,-2.4183,-2.4218,-2.4225,-2.4239,-2.4321,-2.4375,-2.4386,-2.4414,-2.4409,-2.4428,-2.4459,-2.4469,-2.4575,-2.4559,-2.4573,-2.4593,-2.4698,-2.4701,-2.4703,-2.4692,-2.4695,-2.4697,0,0,0,0,0,0,-2.4165,-2.4225,-2.4234,-2.4288,-2.4326,-2.4379,-2.4404,-2.4416,-2.4457,-2.4456,-2.449,-2.4502,-2.4552,-2.4578,-2.4559,-2.4643,-2.4637,-2.4642,-2.4624,-2.4626,-2.4628,-2.4621,-2.4568,0,0,0,0,0,-2.4167,-2.4206,-2.4257,-2.4299,-2.4318,-2.4358,-2.4383,-2.4401,-2.4442,-2.4459,-2.4494,-2.4534,-2.4576,-2.4603,-2.4644,-2.4697,-2.4709,-2.4719,-2.4721,-2.4722,-2.4726,-2.4756,-2.476,-2.4713,-2.4713,-2.4713,0,0,-2.4172,-2.421,-2.4233,-2.4297,-2.4329,-2.4368,-2.4371,-2.4413,-2.4443,-2.4465,-2.4517,-2.4544,-2.4591,-2.4644,-2.4669,-2.4667,-2.4742,-2.4725,-2.4726,-2.4729,-2.4759,-2.4763,-2.4767,-2.4714,-2.4714,-2.4714,0,0,-2.4202,-2.4234,-2.4273,-2.4305,-2.4353,-2.4379,-2.4389,-2.444,-2.4459,-2.4512,-2.4529,-2.4565,-2.4637,-2.467,-2.4695,-2.4738,-2.4748,-2.475,-2.476,-2.4789,-2.4793,-2.4796,-2.481,-2.4815,-2.4754,-2.4754,-2.4754,0,-2.4202,-2.4262,-2.4292,-2.4333,-2.436,-2.4382,-2.4421,-2.4451,-2.4511,-2.4529,-2.4527,-2.4617,-2.465,-2.4711,-2.4721,-2.4742,-2.4753,-2.4744,-2.479,-2.4793,-2.4797,-2.4811,-2.4817,-2.4754,-2.4754,-2.4754,-2.4754,0,-2.426,-2.4301,-2.4327,-2.4383,-2.4414,-2.4454,-2.449,-2.4517,-2.4533,-2.456,-2.4613,-2.4653,-2.4703,-2.4719,-2.4735,-2.4782,-2.478,-2.4783,-2.4777,-2.4801,-2.4815,-2.482,-2.4754,-2.4754,-2.4754,-2.4754,0,0,-2.428,-2.4352,-2.4361,-2.4386,-2.4442,-2.4474,-2.4516,-2.4564,-2.4587,-2.4628,-2.4663,-2.4723,-2.4727,-2.4756,-2.4776,-2.4802,-2.4832,-2.4802,-2.4804,-2.4805,-2.4885,-2.4882,-2.4887,-2.484,-2.4841,-2.4842,-2.4881,0,-2.4315,-2.4389,-2.4417,-2.4477,-2.4516,-2.4538,-2.4574,-2.4611,-2.4637,-2.4674,-2.4703,-2.4745,-2.4747,-2.4765,-2.4791,-2.4822,-2.4848,-2.482,-2.4872,-2.4874,-2.4859,-2.4895,-2.4891,-2.4926,-2.4887,-2.4888,-2.4888,0,-2.4367,-2.4407,-2.4471,-2.4521,-2.4538,-2.457,-2.4617,-2.4652,-2.4695,-2.4712,-2.4745,-2.4764,-2.4808,-2.48,-2.4862,-2.4842,-2.4865,-2.4884,-2.4886,-2.4891,-2.4882,-2.49,-2.4938,-2.4943,-2.4897,-2.4897,-2.4896,0,-2.4374,-2.4445,-2.4492,-2.4513,-2.4573,-2.4595,-2.4621,-2.4663,-2.4691,-2.4732,-2.475,-2.4796,-2.4821,-2.4856,-2.4887,-2.4878,-2.4945,-2.494,-2.496,-2.4959,-2.4972,-2.4971,-2.5014,-2.4989,-2.4989,-2.4989,-2.4989,0,-2.441,-2.4448,-2.4496,-2.4525,-2.4568,-2.46,-2.4643,-2.467,-2.4708,-2.4743,-2.4765,-2.4797,-2.4836,-2.4873,-2.4898,-2.4945,-2.4956,-2.4971,-2.4977,-2.4969,-2.4966,-2.4984,-2.4982,-2.499,-2.499,-2.499,-2.4989,0,-2.4425,-2.4459,-2.4512,-2.4564,-2.4578,-2.4608,-2.4652,-2.4682,-2.4709,-2.4753,-2.4765,-2.4808,-2.4853,-2.4887,-2.4946,-2.4962,-2.5012,-2.5018,-2.4997,-2.5,-2.5018,-2.5015,-2.5072,-2.5081,-2.5051,-2.5051,-2.5051,0,-2.4446,-2.4476,-2.4531,-2.4556,-2.4581,-2.4621,-2.4649,-2.4682,-2.471,-2.4762,-2.4785,-2.4832,-2.487,-2.4942,-2.4978,-2.5023,-2.5031,-2.5048,-2.5038,-2.5028,-2.503,-2.5028,-2.5031,-2.5049,-2.5049,-2.5049,-2.5049,0,-2.4479,-2.4494,-2.4533,-2.4578,-2.4611,-2.4648,-2.4685,-2.4704,-2.4744,-2.4775,-2.4821,-2.4851,-2.4911,-2.4957,-2.5006,-2.5033,-2.5048,-2.5052,-2.5059,-2.5051,-2.5036,-2.5044,-2.4999,-2.5051,-2.505,-2.505,-2.505,-2.505,-2.4497,-2.4525,-2.4567,-2.461,-2.4642,-2.4676,-2.4706,-2.4737,-2.4776,-2.4827,-2.4844,-2.4892,-2.4935,-2.5002,-2.5029,-2.5067,-2.5067,-2.5078,-2.508,-2.5082,-2.5081,-2.5031,-2.5076,-2.5076,-2.5076,-2.5076,-2.5076,0,-2.4531,-2.4559,-2.4599,-2.465,-2.4684,-2.4694,-2.4737,-2.4764,-2.4805,-2.4844,-2.4882,-2.4935,-2.498,-2.502,-2.5066,-2.5089,-2.5097,-2.51,-2.5098,-2.5104,-2.5078,-2.5067,-2.5093,-2.5093,-2.5093,-2.5093,-2.5093,-2.5093,-2.4552,-2.4599,-2.4619,-2.4681,-2.471,-2.4756,-2.4779,-2.4811,-2.4842,-2.49,-2.4937,-2.4963,-2.5002,-2.5052,-2.5093,-2.5104,-2.512,-2.5121,-2.5133,-2.5108,-2.5106,-2.5104,-2.5094,-2.5125,-2.5125,-2.5156,-2.5156,-2.5157]},{"header":{"parameterUnit":"m.s-1","parameterCategory":1,"la1":30.2991,"la2":30.254,"lo1":-89.0895,"lo2":-89.0444,"dy":0.0017,"dx":0.0017,"nx":28,"ny":28,"refTime":"2025-04-29T21:00:00:Z","depth":0,"parameterNumber":3,"parameterNumberName":"V-component_of_WINDS"},"data":[0,0,0,0,0,0,0,0,0,0,0,0,0,0,0,0,0,0,0,0,0,0,0,0,0,0,0,0,0,0,0,0,0,0,0,0,0,0,0,0,0,0,0,0,0,0,0,0,0,0,0,0,0,0,0,0,0,0,4.9367,4.9368,0,4.945,4.9451,4.9452,4.9413,4.941,4.9408,4.9406,4.9486,4.949,4.9494,0,0,0,0,0,0,0,0,0,0,0,0,0,4.917,4.9174,4.9367,4.9368,4.937,4.945,4.9451,4.9452,4.9413,4.941,4.9408,4.9405,4.9485,4.9489,4.9494,0,0,0,0,0,0,0,0,0,0,0,0,0,4.9255,4.9175,4.9367,4.936,4.936,4.945,4.9451,4.9453,4.9413,4.941,4.9407,4.9404,4.9483,4.9489,4.9495,4.9595,0,0,4.9514,4.9516,0,0,0,0,0,0,0,0,4.925,4.9262,4.936,4.936,4.9361,4.9418,4.9411,4.95,4.9414,4.9393,4.9406,4.9403,4.9465,4.9473,4.9495,4.9599,4.9603,4.9514,4.9518,4.952,4.9522,0,0,0,0,0,0,0,4.9244,4.9258,4.94,4.9361,4.9362,4.935,4.9359,4.9428,4.9446,4.9395,4.9392,4.9403,4.9465,4.9489,4.9497,4.9604,4.9514,4.9519,4.9523,4.9526,4.9794,4.9797,0,0,0,0,0,0,4.9239,4.9254,4.9397,4.9402,4.9297,4.9357,4.9366,4.9403,4.9445,4.9448,4.9405,4.94,4.948,4.949,4.9499,4.9619,4.952,4.9526,4.953,4.979,4.9794,4.9798,0,0,0,0,0,0,4.9235,4.9252,4.9394,4.9327,4.9345,4.9363,4.9405,4.9406,4.943,4.9453,4.9455,4.9427,4.9478,4.9491,4.9572,4.9622,4.9529,4.9534,4.9786,4.9792,4.9796,4.9861,0,0,0,0,0,0,4.923,4.9251,4.9291,4.9329,4.9348,4.9467,4.9408,4.941,4.9441,4.9436,4.9474,4.9477,4.9477,4.9563,4.9578,4.9628,4.9539,4.9782,4.9789,4.9795,4.9854,4.9867,4.9879,0,0,0,0,0,4.9223,4.9305,4.9293,4.9311,4.9398,4.947,4.9481,4.9481,4.9446,4.9485,4.9499,4.9476,4.9614,4.9572,4.9588,4.9641,4.9779,4.9787,4.9794,4.9849,4.9865,4.9878,0,0,0,0,0,0,4.927,4.9309,4.9297,4.9394,4.9429,4.9463,4.9513,4.9498,4.9542,4.9535,4.9531,4.954,4.9624,4.9641,4.9593,4.974,4.9691,4.9702,4.9726,4.9742,4.9754,4.9748,4.9544,0,0,0,0,0,4.9292,4.9349,4.9379,4.9462,4.948,4.9494,4.9525,4.9522,4.9557,4.9571,4.9592,4.9626,4.9677,4.971,4.9758,4.9857,4.9864,4.9901,4.9913,4.9923,4.9933,4.9985,5.0002,4.9824,4.9824,4.9824,0,0,4.9338,4.9366,4.9402,4.9472,4.9499,4.9556,4.9506,4.9569,4.9611,4.958,4.9659,4.9675,4.9712,4.9803,4.9843,4.9819,4.9984,4.9933,4.9941,4.9945,4.9995,5.0012,5.0027,4.9829,4.9828,4.9827,0,0,4.945,4.9478,4.9549,4.9578,4.962,4.9628,4.9646,4.9682,4.9692,4.9772,4.975,4.9799,4.9887,4.9914,4.994,5.0063,5.0043,5.0079,5.0142,5.0193,5.0207,5.022,5.0263,5.0279,5.0088,5.0088,5.0089,0,4.9501,4.9588,4.9587,4.9652,4.9683,4.966,4.9732,4.9759,4.9814,4.9835,4.9807,4.9917,4.9941,5.0037,5.0067,5.0089,5.0107,5.0074,5.0206,5.0218,5.023,5.0271,5.0287,5.0092,5.0092,5.0092,5.0091,0,4.9648,4.9708,4.9761,4.9816,4.9853,4.9921,4.9929,4.9966,4.996,4.9971,5.0051,5.0079,5.0132,5.0155,5.0148,5.025,5.0233,5.0206,5.0156,5.0251,5.0289,5.0305,5.0098,5.0097,5.0096,5.0095,0,0,4.9791,4.9847,4.9866,4.9891,4.9936,4.9982,5.0048,5.0102,5.0133,5.0172,5.0226,5.0301,5.0277,5.0306,5.0302,5.0347,5.0442,5.0314,5.0315,5.0336,5.0555,5.0575,5.0593,5.0429,5.0432,5.0435,5.0551,0,4.9906,5.0024,5.0026,5.0133,5.0189,5.0168,5.0225,5.0258,5.027,5.0317,5.0329,5.0383,5.0346,5.0363,5.0407,5.0421,5.0486,5.0413,5.0478,5.0481,5.0469,5.0613,5.0634,5.0743,5.0566,5.0569,5.0571,0,5.0056,5.0101,5.0215,5.0252,5.0275,5.0327,5.0376,5.0422,5.0459,5.0464,5.0497,5.0487,5.0552,5.0501,5.0591,5.0541,5.0568,5.0579,5.0583,5.0589,5.0531,5.0622,5.0778,5.0794,5.0595,5.0593,5.0591,0,5.0149,5.0238,5.0318,5.034,5.0385,5.0422,5.0442,5.0475,5.0507,5.055,5.057,5.062,5.0646,5.0684,5.0686,5.0649,5.0777,5.0725,5.0781,5.0782,5.0809,5.0807,5.0971,5.0827,5.0827,5.0827,5.0826,0,5.0277,5.0347,5.036,5.0409,5.0486,5.0487,5.0563,5.058,5.061,5.066,5.0644,5.0692,5.0693,5.0741,5.0743,5.0816,5.0828,5.0834,5.0833,5.0835,5.0834,5.0852,5.0844,5.0831,5.083,5.0829,5.0829,0,5.0393,5.0405,5.049,5.0527,5.0537,5.0593,5.0623,5.0668,5.0679,5.0743,5.0758,5.0774,5.083,5.0836,5.0901,5.0902,5.0991,5.0982,5.0979,5.0977,5.1033,5.1027,5.1213,5.1237,5.1079,5.108,5.1082,0,5.0474,5.0528,5.057,5.0604,5.0626,5.068,5.0714,5.0716,5.0751,5.0796,5.0836,5.0891,5.0934,5.1024,5.104,5.1089,5.1081,5.1143,5.1089,5.1088,5.1082,5.1078,5.1083,5.1154,5.1155,5.1157,5.1158,0,5.0615,5.0619,5.0668,5.072,5.0761,5.0801,5.0839,5.0866,5.0873,5.0913,5.0971,5.1005,5.1071,5.1125,5.1173,5.1192,5.1176,5.1175,5.1191,5.1192,5.1188,5.1191,5.1007,5.1171,5.1169,5.1168,5.1168,5.1167,5.0716,5.0763,5.08,5.0856,5.0885,5.092,5.0965,5.0982,5.1031,5.1086,5.1084,5.1147,5.1181,5.1245,5.1267,5.1316,5.1295,5.1317,5.1323,5.1328,5.1334,5.1181,5.1324,5.1324,5.1324,5.1323,5.1323,0,5.0856,5.088,5.0931,5.0985,5.1028,5.1011,5.1052,5.1089,5.1145,5.1179,5.1223,5.1289,5.1341,5.1362,5.1412,5.1447,5.1441,5.146,5.1457,5.1462,5.135,5.1331,5.1464,5.1464,5.1464,5.1464,5.1464,5.1464,5.0934,5.1012,5.102,5.1112,5.1134,5.1197,5.1222,5.1254,5.1282,5.1356,5.14,5.1414,5.1442,5.1495,5.1542,5.1546,5.1565,5.1588,5.1589,5.1484,5.147,5.1456,5.1438,5.1592,5.1592,5.1697,5.1698,5.1698]}]]